Location: Oberkirch
(48.5323°N, 8.0787°E)
Time: 16:12:01
(UTC+00:00)

USA-17 - Pass Details

Date: 08 November 2025
Orbit: 399 x 1582 km, 63.3° (Epoch: 13 December)

Event Time Altitude Azimuth Distance (km) Brightness Sun altitude
Exits shadow 05:19:57 16° 308° (NW) 1,172 6.0 -11.0°
Maximum altitude 05:22:18 54° 233° (SW) 509 4.4 -10.6°
Drops below altitude 10° 05:25:37 10° 154° (SSE) 1,589 7.8 -10.1°
Sets 05:27:55 0° 150° (SSE) 2,574 9.0 -9.7°
